When you browse on this site, cookies collect data to enhance your experience and personalize the content and advertising you see.
Visit our Privacy Policy to learn more. By continuing to use the site, you agree to this use of cookies and data.
  • En España
  • Lista de países
  • Para 7 días
  • Temperatura del agua
  • El tiempo en el mapa
  • Informadores
  • user-avatar
    Iniciar sesión

    Tiempo cada hora Marsa Alam

    Hoy, 23 Octubre, Miércoles

    Tiempo Temperatura Precipitaciones Viento Presión Humedad
    00:00 +24°C° 0 mm 1 mps 712 mmHg 36%
    01:00 +24°C° 0 mm 1 mps 712 mmHg 36%
    02:00 +24°C° 0 mm 1 mps 712 mmHg 35%
    03:00 +23°C° 0 mm 1 mps 712 mmHg 37%
    04:00 +23°C° 0 mm 1 mps 712 mmHg 39%
    05:00 +22°C° 0 mm 1 mps 712 mmHg 40%
    06:00 +24°C° 0 mm 1 mps 713 mmHg 38%
    07:00 +26°C° 0 mm 2 mps 713 mmHg 36%
    08:00 +28°C° 0 mm 2 mps 714 mmHg 34%
    09:00 +29°C° 0 mm 2 mps 714 mmHg 32%
    10:00 +30°C° 0 mm 3 mps 714 mmHg 31%
    11:00 +31°C° 0 mm 3 mps 714 mmHg 29%
    12:00 +33°C° 0 mm 4 mps 713 mmHg 28%
    13:00 +33°C° 0 mm 4 mps 713 mmHg 27%
    14:00 +34°C° 0 mm 4 mps 712 mmHg 27%
    15:00 +32°C° 0 mm 4 mps 712 mmHg 33%
    16:00 +29°C° 0 mm 4 mps 712 mmHg 39%
    17:00 +28°C° 0 mm 3 mps 712 mmHg 46%
    18:00 +26°C° 0 mm 2 mps 712 mmHg 51%
    19:00 +25°C° 0 mm 2 mps 713 mmHg 56%
    20:00 +23°C° 0 mm 1 mps 713 mmHg 61%
    21:00 +23°C° 0 mm 1 mps 713 mmHg 57%
    22:00 +23°C° 0 mm 1 mps 713 mmHg 53%
    23:00 +23°C° 0 mm 1 mps 713 mmHg 49%

    Mañana, 24 Octubre, Jueves

    Tiempo Temperatura Precipitaciones Viento Presión Humedad
    00:00 +23°C° 0 mm 1 mps 713 mmHg 51%
    01:00 +22°C° 0 mm 1 mps 713 mmHg 53%
    02:00 +21°C° 0 mm 2 mps 713 mmHg 55%
    03:00 +20°C° 0 mm 2 mps 713 mmHg 62%
    04:00 +20°C° 0 mm 2 mps 713 mmHg 68%
    05:00 +19°C° 0 mm 2 mps 713 mmHg 75%
    06:00 +21°C° 0 mm 2 mps 713 mmHg 67%
    07:00 +24°C° 0 mm 2 mps 714 mmHg 59%
    08:00 +26°C° 0 mm 2 mps 715 mmHg 51%
    09:00 +27°C° 0 mm 2 mps 715 mmHg 45%
    10:00 +29°C° 0 mm 2 mps 715 mmHg 38%
    11:00 +31°C° 0 mm 2 mps 715 mmHg 32%
    12:00 +31°C° 0 mm 3 mps 714 mmHg 32%
    13:00 +32°C° 0 mm 4 mps 714 mmHg 31%
    14:00 +32°C° 0 mm 5 mps 714 mmHg 31%
    15:00 +30°C° 0 mm 4 mps 713 mmHg 36%
    16:00 +28°C° 0 mm 3 mps 713 mmHg 41%
    17:00 +26°C° 0 mm 3 mps 713 mmHg 46%
    18:00 +25°C° 0 mm 2 mps 713 mmHg 55%
    19:00 +23°C° 0 mm 1 mps 713 mmHg 64%
    20:00 +19°C° 0 mm 0 mps 714 mmHg 72%
    21:00 +19°C° 0 mm 0 mps 714 mmHg 72%
    22:00 +18°C° 0 mm 0 mps 714 mmHg 72%
    23:00 +18°C° 0 mm 0 mps 714 mmHg 71%

    Pasado mañana, 25 Octubre, Viernes

    Tiempo Temperatura Precipitaciones Viento Presión Humedad
    00:00 +20°C° 0 mm 1 mps 714 mmHg 66%
    01:00 +20°C° 0 mm 1 mps 713 mmHg 61%
    02:00 +19°C° 0 mm 1 mps 713 mmHg 56%
    03:00 +19°C° 0 mm 1 mps 713 mmHg 53%
    04:00 +18°C° 0 mm 1 mps 713 mmHg 50%
    05:00 +18°C° 0 mm 1 mps 713 mmHg 47%
    06:00 +20°C° 0 mm 1 mps 714 mmHg 41%
    07:00 +23°C° 0 mm 1 mps 714 mmHg 35%
    08:00 +25°C° 0 mm 2 mps 715 mmHg 30%
    09:00 +27°C° 0 mm 2 mps 715 mmHg 26%
    10:00 +28°C° 0 mm 2 mps 715 mmHg 22%
    11:00 +30°C° 0 mm 2 mps 715 mmHg 18%
    12:00 +30°C° 0 mm 3 mps 715 mmHg 19%
    13:00 +30°C° 0 mm 3 mps 714 mmHg 20%
    14:00 +30°C° 0 mm 4 mps 714 mmHg 21%
    15:00 +28°C° 0 mm 4 mps 714 mmHg 30%
    16:00 +27°C° 0 mm 3 mps 714 mmHg 38%
    17:00 +25°C° 0 mm 3 mps 714 mmHg 47%
    18:00 +23°C° 0 mm 2 mps 714 mmHg 55%
    19:00 +21°C° 0 mm 1 mps 714 mmHg 64%
    20:00 +20°C° 0 mm 1 mps 714 mmHg 72%
    21:00 +20°C° 0 mm 1 mps 714 mmHg 73%
    22:00 +19°C° 0 mm 1 mps 714 mmHg 74%
    23:00 +19°C° 0 mm 1 mps 714 mmHg 74%

    26 Octubre, Sábado

    Tiempo Temperatura Precipitaciones Viento Presión Humedad
    00:00 +19°C° 0 mm 1 mps 714 mmHg 72%
    01:00 +19°C° 0 mm 1 mps 714 mmHg 71%
    02:00 +18°C° 0 mm 1 mps 713 mmHg 69%
    03:00 +18°C° 0 mm 1 mps 714 mmHg 67%
    04:00 +18°C° 0 mm 1 mps 714 mmHg 65%
    05:00 +18°C° 0 mm 1 mps 714 mmHg 63%
    06:00 +19°C° 0 mm 2 mps 714 mmHg 54%
    07:00 +23°C° 0 mm 2 mps 715 mmHg 46%
    08:00 +25°C° 0 mm 3 mps 716 mmHg 37%
    09:00 +26°C° 0 mm 3 mps 716 mmHg 32%
    10:00 +28°C° 0 mm 3 mps 716 mmHg 28%
    11:00 +29°C° 0 mm 3 mps 716 mmHg 23%
    12:00 +30°C° 0 mm 3 mps 715 mmHg 24%
    13:00 +30°C° 0 mm 4 mps 715 mmHg 24%
    14:00 +30°C° 0 mm 4 mps 714 mmHg 25%
    15:00 +28°C° 0 mm 4 mps 714 mmHg 34%
    16:00 +26°C° 0 mm 4 mps 714 mmHg 43%
    17:00 +25°C° 0 mm 4 mps 713 mmHg 51%
    18:00 +22°C° 0 mm 3 mps 714 mmHg 61%
    19:00 +21°C° 0 mm 3 mps 714 mmHg 70%
    20:00 +19°C° 0 mm 2 mps 714 mmHg 80%
    21:00 +19°C° 0 mm 2 mps 714 mmHg 78%
    22:00 +19°C° 0 mm 2 mps 714 mmHg 77%
    23:00 +19°C° 0 mm 3 mps 714 mmHg 76%

    27 Octubre, Domingo

    Tiempo Temperatura Precipitaciones Viento Presión Humedad
    00:00 +19°C° 0 mm 3 mps 714 mmHg 74%
    01:00 +19°C° 0 mm 3 mps 713 mmHg 73%
    02:00 +18°C° 0 mm 3 mps 713 mmHg 71%
    03:00 +18°C° 0 mm 2 mps 713 mmHg 73%
    04:00 +17°C° 0 mm 2 mps 713 mmHg 76%
    05:00 +17°C° 0 mm 2 mps 713 mmHg 78%
    06:00 +19°C° 0 mm 2 mps 713 mmHg 69%
    07:00 +20°C° 0 mm 2 mps 714 mmHg 60%
    08:00 +23°C° 0 mm 2 mps 715 mmHg 52%
    09:00 +25°C° 0 mm 3 mps 715 mmHg 44%
    10:00 +27°C° 0 mm 3 mps 715 mmHg 37%
    11:00 +28°C° 0 mm 3 mps 715 mmHg 30%
    12:00 +29°C° 0 mm 4 mps 714 mmHg 31%
    13:00 +29°C° 0 mm 4 mps 713 mmHg 31%
    14:00 +30°C° 0 mm 5 mps 713 mmHg 32%
    15:00 +28°C° 0 mm 5 mps 713 mmHg 43%
    16:00 +26°C° 0 mm 5 mps 712 mmHg 53%
    17:00 +23°C° 0 mm 4 mps 712 mmHg 64%
    18:00 +22°C° 0 mm 3 mps 712 mmHg 69%
    19:00 +20°C° 0 mm 2 mps 712 mmHg 75%
    20:00 +20°C° 0 mm 1 mps 712 mmHg 80%
    21:00 +20°C° 0 mm 1 mps 712 mmHg 74%
    22:00 +19°C° 0 mm 1 mps 712 mmHg 69%
    23:00 +19°C° 0 mm 1 mps 713 mmHg 63%

    28 Octubre, Lunes

    Tiempo Temperatura Precipitaciones Viento Presión Humedad
    00:00 +19°C° 0 mm 1 mps 712 mmHg 66%
    01:00 +18°C° 0 mm 2 mps 712 mmHg 70%
    02:00 +17°C° 0 mm 2 mps 712 mmHg 73%
    03:00 +17°C° 0 mm 2 mps 712 mmHg 76%
    04:00 +17°C° 0 mm 2 mps 712 mmHg 79%
    05:00 +17°C° 0 mm 2 mps 712 mmHg 82%
    06:00 +19°C° 0 mm 2 mps 713 mmHg 73%
    07:00 +21°C° 0 mm 3 mps 713 mmHg 64%
    08:00 +23°C° 0 mm 4 mps 714 mmHg 55%
    09:00 +26°C° 0 mm 4 mps 714 mmHg 46%
    10:00 +28°C° 0 mm 4 mps 714 mmHg 38%
    11:00 +30°C° 0 mm 4 mps 714 mmHg 29%
    12:00 +30°C° 0 mm 5 mps 714 mmHg 29%
    13:00 +32°C° 0 mm 5 mps 713 mmHg 29%
    14:00 +32°C° 0 mm 6 mps 713 mmHg 29%
    15:00 +29°C° 0 mm 5 mps 713 mmHg 38%
    16:00 +27°C° 0 mm 5 mps 712 mmHg 47%
    17:00 +25°C° 0 mm 4 mps 712 mmHg 56%
    18:00 +22°C° 0 mm 4 mps 712 mmHg 61%
    19:00 +21°C° 0 mm 3 mps 712 mmHg 66%
    20:00 +19°C° 0 mm 2 mps 713 mmHg 72%
    21:00 +19°C° 0 mm 2 mps 713 mmHg 69%
    22:00 +19°C° 0 mm 2 mps 713 mmHg 67%
    23:00 +19°C° 0 mm 2 mps 713 mmHg 65%

    29 Octubre, Martes

    Tiempo Temperatura Precipitaciones Viento Presión Humedad
    00:00 +18°C° 0 mm 2 mps 713 mmHg 67%
    01:00 +18°C° 0 mm 2 mps 712 mmHg 70%
    02:00 +17°C° 0 mm 2 mps 712 mmHg 73%
    03:00 +17°C° 0 mm 2 mps 712 mmHg 74%
    04:00 +17°C° 0 mm 2 mps 712 mmHg 76%
    05:00 +17°C° 0 mm 2 mps 712 mmHg 77%
    06:00 +19°C° 0 mm 2 mps 713 mmHg 66%
    07:00 +21°C° 0 mm 3 mps 714 mmHg 54%
    08:00 +25°C° 0 mm 4 mps 714 mmHg 42%
    09:00 +27°C° 0 mm 4 mps 714 mmHg 35%
    10:00 +29°C° 0 mm 4 mps 715 mmHg 28%
    11:00 +32°C° 0 mm 4 mps 715 mmHg 20%
    12:00 +32°C° 0 mm 5 mps 714 mmHg 22%
    13:00 +32°C° 0 mm 5 mps 714 mmHg 23%
    14:00 +32°C° 0 mm 5 mps 713 mmHg 24%
    15:00 +29°C° 0 mm 5 mps 713 mmHg 34%
    16:00 +27°C° 0 mm 4 mps 713 mmHg 43%
    17:00 +25°C° 0 mm 3 mps 713 mmHg 53%
    18:00 +22°C° 0 mm 3 mps 713 mmHg 54%
    19:00 +21°C° 0 mm 2 mps 713 mmHg 55%
    20:00 +20°C° 0 mm 1 mps 713 mmHg 56%
    21:00 +20°C° 0 mm 1 mps 713 mmHg 54%
    22:00 +19°C° 0 mm 1 mps 713 mmHg 51%
    23:00 +16°C° 0 mm 0 mps 713 mmHg 49%
    Mostrar más